Regional Weather Roundup
Issued by NWS

Home | Current Version | Previous Version | Graphics & Text | Print | Product List | Glossary On
Versions: 1 2 3 4 5 6 7 8 9 10 11 12 13 14 15 16 17 18 19 20 21 22 23 24 25 26 27 28 29 30 31 32 33 34 35 36 37 38 39 40 41 42 43 44 45 46 47 48 49 50
000
ASUS43 KIND 242109
RWRIN

WEATHER ROUNDUP FOR INDIANA
NATIONAL WEATHER SERVICE INDIANAPOLIS IN
500 PM EDT THU APR 24 2014

NOTE: "FAIR" INDICATES FEW OR NO CLOUDS BELOW 12,000 FEET WITH NO
SIGNIFICANT WEATHER AND/OR OBSTRUCTIONS TO VISIBILITY.

* - STATION DOES NOT REPORT WEATHER SUCH AS PRECIPITATION OR FOG.

+ - STATION NOT QUALITY CONTROLLED BY THE NATIONAL WEATHER SERVICE.
    USE DATA WITH CAUTION...ESPECIALLY DEWPOINT AND RELATIVE
    HUMIDITY OBSERVATIONS.

INZ001>003-010>013-019-020-242200-
NORTHWEST INDIANA

CITY           SKY/WX    TMP DP  RH WIND       PRES   REMARKS
GARY /AIRPORT/ CLOUDY    64  27  24 SE17G32   29.83F
LA PORTE +     CLOUDY    60  21  22 SE21G26   29.86F
MICHIGAN CITY+ CLOUDY    59  19  21 SE15G23   29.84F
MONTICELLO +   CLOUDY    62  32  31 SE13G20   29.84F
RENSSELAER +   CLOUDY    63  30  29 SE20G26   29.83F
VALPARAISO     CLOUDY    61  22  22 SE16G30   29.85F

$$

LMZ046-743>745-242200-
SOUTHERN LAKE MICHIGAN

STATION/POSITION TIME  TEMP WIND        PRES
                       AIR  DIR/SP/G
                 (UTC) (F)  (DEG/KT/KT) (MB)
MICHIGAN CITY    2100   60  110/ 17/ 25   N/A

$$

INZ004-005-014>016-021>024-242200-
NORTH CENTRAL INDIANA

CITY           SKY/WX    TMP DP  RH WIND       PRES   REMARKS
ELKHART        CLOUDY    57  21  24 SE16      29.90F
GOSHEN         CLOUDY    58  23  26 SE16G24   29.90F
LOGANSPORT +   CLOUDY    61  27  27 SE17      29.87F
PERU/GRISSOM   CLOUDY    62  28  28 SE18      29.87F
ROCHESTER +    CLOUDY    63  23  22 SE18G24   29.89F
SOUTH BEND     LGT RAIN  59  23  25 SE20G28   29.88F
WARSAW +       CLOUDY    59  27  29 E14       29.90F

$$

INZ006>009-017-018-025>027-242200-
NORTHEAST INDIANA

CITY           SKY/WX    TMP DP  RH WIND       PRES   REMARKS
ANGOLA *+      MOSUNNY   57  45  62 E18       29.95F
AUBURN +       CLOUDY    57  21  24 SE10G17   29.95F
FORT WAYNE     LGT RAIN  59  20  22 E18       29.93F

$$

INZ028-029-035-036-043>045-051>053-242200-
WEST CENTRAL INDIANA

CITY           SKY/WX    TMP DP  RH WIND       PRES   REMARKS
GREENCASTLE +  PTSUNNY   66  39  37 S12G17    29.83F
LAFAYETTE      PTSUNNY   65  36  34 SE14G25   29.82F
TERRE HAUTE    PTSUNNY   71  37  28 S13G25    29.80F

$$

INZ030>032-037>040-046>048-054>057-064-065-242200-
CENTRAL INDIANA

CITY           SKY/WX    TMP DP  RH WIND       PRES   REMARKS
CP ATTERBURY + SUNNY     66  36  32 SE16G23   29.86F
INDIANAPOLIS   PTSUNNY   64  35  34 SE18G28   29.83F
-EAGLE CREEK   MOSUNNY   64  36  35 SE15G22   29.84F
KOKOMO *+      CLOUDY    63  30  29 SE17      29.88F
MARION +       CLOUDY    62  21  21 SE17      29.90F
MT COMFORT *+  MOSUNNY   68  36  30 SE17G24   29.86F
SHELBYVILLE    MOSUNNY   68  34  28 SE16      29.86F
ZIONSVILLE +   MOSUNNY   66  31  26 SE13G20   29.86F

$$

INZ033-034-041-042-049-050-058-059-242200-
EAST CENTRAL INDIANA

CITY           SKY/WX    TMP DP  RH WIND       PRES   REMARKS
MUNCIE         CLOUDY    62  24  23 SE14      29.90F

$$

INZ060-061-067>069-081>083-085>088-242200-
SOUTHWEST INDIANA

CITY           SKY/WX    TMP DP  RH WIND       PRES   REMARKS
EVANSVILLE     PTSUNNY   75  39  27 SE9       29.80F
HUNTINGBURG *+ MOSUNNY   73  37  27 SW10G16   29.83F
WASHINGTON +   MOSUNNY   73  39  29 SE16      29.81F

$$

INZ062-063-066-070>080-084-089>092-242200-
SOUTH CENTRAL AND SOUTHEAST INDIANA

CITY           SKY/WX    TMP DP  RH WIND       PRES   REMARKS
BLOOMINGTON    MOSUNNY   69  34  27 S15G21    29.83F
NORTH VERNON + SUNNY     68  32  26 SE10G18   29.88F

$$




USA.gov is the U.S. government's official web portal to all federal, state and local government web resources and services.